Location: Sauerland
(51.1981°N, 7.8053°E)
Time: 15:46:37
(UTC+01:00)

ISS - Pass Details

Date: 19 February 2026
Orbit: 416 x 427 km, 51.6° (Epoch: 5 March)

Event Time Altitude Azimuth Distance (km) Brightness Sun altitude
Exits shadow 05:42:39 45° 208° (SSW) 581 -3.3 -18.1°
Maximum altitude 05:43:22 57° 159° (SSE) 496 -3.4 -18.0°
Drops below altitude 10° 05:46:40 10° 80° (E) 1,495 0.3 -17.5°
Sets 05:48:47 0° 76° (ENE) 2,359 1.7 -17.2°
